| time (UTC) | temp C | wind direction | speed KPH | gust KPH | rain 1hr cm | rain 24hr cm | rain mn cm | humidity % | barometer mb |
| 20260505140504 | 15 | 353 | 3.2 | 16.1 | 0.00 | 0.00 | 0.00 | 68 | 1012.9 |
| 20260505125004 | 15 | 129 | 14.5 | 25.7 | 0.00 | 0.00 | 0.00 | 63 | 1013.2 |
| 20260505124004 | 15 | 29 | 14.5 | 19.3 | 0.00 | 0.00 | 0.00 | 65 | 1013.2 |
| 20260505123504 | 15 | 59 | 20.9 | 25.7 | 0.00 | 0.00 | 0.00 | 66 | 1013.5 |
| 20260505123004 | 15 | 355 | 14.5 | 25.7 | 0.00 | 0.00 | 0.00 | 64 | 1013.5 |
| 20260505122504 | 15 | 331 | 9.7 | 22.5 | 0.00 | 0.00 | 0.00 | 65 | 1013.3 |
| 20260505122003 | 15 | 14 | 6.4 | 11.3 | 0.00 | 0.00 | 0.00 | 64 | 1012.9 |
| 20260505121504 | 15 | 33 | 9.7 | 22.5 | 0.00 | 0.00 | 0.00 | 67 | 1013.4 |
| 20260505121004 | 15 | 30 | 11.3 | 22.5 | 0.00 | 0.00 | 0.00 | 69 | 1013.3 |
| 20260505120504 | 15 | 43 | 9.7 | 16.1 | 0.00 | 0.00 | 0.00 | 68 | 1013.2 |
| 20260505115505 | 15 | 32 | 17.7 | 29.0 | 0.00 | 0.00 | 0.00 | 69 | 1013.6 |
| 20260505115004 | 15 | 49 | 20.9 | 29.0 | 0.00 | 0.00 | 0.00 | 69 | 1013.7 |
| 20260505114504 | 15 | 68 | 11.3 | 29.0 | 0.00 | 0.00 | 0.00 | 68 | 1013.5 |
| 20260505114005 | 15 | 26 | 6.4 | 12.9 | 0.00 | 0.00 | 0.00 | 67 | 1013.5 |
| 20260505113505 | 15 | 24 | 4.8 | 8.0 | 0.00 | 0.00 | 0.00 | 68 | 1013.5 |
| 20260505113004 | 15 | 46 | 8.0 | 12.9 | 0.00 | 0.00 | 0.00 | 68 | 1013.5 |
| 20260505112504 | 14 | 44 | 8.0 | 12.9 | 0.00 | 0.00 | 0.00 | 69 | 1013.3 |
| 20260505112005 | 15 | 38 | 8.0 | 37.0 | 0.00 | 0.00 | 0.00 | 68 | 1013.6 |
| 20260505111505 | 15 | 40 | 11.3 | 37.0 | 0.00 | 0.00 | 0.00 | 68 | 1013.9 |
| 20260505111004 | 14 | 8 | 14.5 | 22.5 | 0.00 | 0.00 | 0.00 | 70 | 1013.9 |
| 20260505110503 | 14 | 17 | 11.3 | 22.5 | 0.00 | 0.00 | 0.00 | 70 | 1013.9 |
| 20260505102004 | 14 | 40 | 14.5 | 29.0 | 0.00 | 0.00 | 0.00 | 71 | 1014.2 |
| 20260505101504 | 13 | 84 | 11.3 | 25.7 | 0.00 | 0.00 | 0.00 | 73 | 1014.6 |
| 20260505101004 | 13 | 7 | 14.5 | 29.0 | 0.00 | 0.00 | 0.00 | 71 | 1014.2 |
| 20260505100504 | 13 | 58 | 11.3 | 29.0 | 0.00 | 0.00 | 0.00 | 72 | 1014.2 |
| 20260505100006 | 13 | 34 | 11.3 | 16.1 | 0.00 | 0.00 | 0.00 | 72 | 1014.2 |
| 20260505095504 | 13 | 38 | 11.3 | 22.5 | 0.00 | 0.00 | 0.00 | 74 | 1014.6 |
| 20260505095004 | 13 | 29 | 11.3 | 25.7 | 0.00 | 0.00 | 0.00 | 74 | 1014.6 |
| 20260505094504 | 13 | 19 | 9.7 | 25.7 | 0.00 | 0.00 | 0.00 | 75 | 1014.6 |
| 20260505094004 | 12 | 33 | 8.0 | 29.0 | 0.00 | 0.00 | 0.00 | 75 | 1014.6 |
| 20260505093504 | 12 | 3 | 12.9 | 29.0 | 0.00 | 0.00 | 0.00 | 76 | 1014.6 |
| 20260505092503 | 12 | 3 | 16.1 | 29.0 | 0.00 | 0.00 | 0.00 | 77 | 1014.6 |
| 20260505091003 | 12 | 50 | 11.3 | 29.0 | 0.00 | 0.00 | 0.00 | 79 | 1014.6 |
| 20260505090504 | 11 | 9 | 9.7 | 29.0 | 0.00 | 0.00 | 0.00 | 79 | 1014.6 |
| 20260505090005 | 12 | 28 | 16.1 | 29.0 | 0.00 | 0.00 | 0.00 | 79 | 1014.6 |
| 20260505085004 | 12 | 36 | 14.5 | 25.7 | 0.00 | 0.00 | 0.00 | 80 | 1014.6 |
| 20260505084504 | 11 | 4 | 12.9 | 22.5 | 0.00 | 0.00 | 0.00 | 81 | 1014.6 |
| 20260505083504 | 11 | 9 | 11.3 | 20.9 | 0.00 | 0.00 | 0.00 | 84 | 1013.9 |
| 20260505083005 | 11 | 357 | 11.3 | 22.5 | 0.00 | 0.00 | 0.00 | 86 | 1014.2 |
| 20260505082504 | 11 | 28 | 12.9 | 22.5 | 0.00 | 0.00 | 0.00 | 87 | 1014.9 |
| 20260505082005 | 10 | 331 | 8.0 | 19.3 | 0.00 | 0.00 | 0.00 | 87 | 1014.9 |
| 20260505081504 | 10 | 62 | 9.7 | 25.7 | 0.00 | 0.00 | 0.00 | 88 | 1014.6 |
| 20260505081004 | 10 | 332 | 16.1 | 25.7 | 0.00 | 0.00 | 0.00 | 88 | 1014.9 |
| 20260505080504 | 10 | 36 | 8.0 | 19.3 | 0.00 | 0.00 | 0.00 | 88 | 1014.9 |
| 20260505080005 | 10 | 22 | 3.2 | 22.5 | 0.00 | 0.00 | 0.00 | 88 | 1013.9 |
| 20260505075504 | 10 | 19 | 14.5 | 22.5 | 0.00 | 0.00 | 0.00 | 88 | 1014.9 |
| 20260505075005 | 11 | 328 | 16.1 | 19.3 | 0.00 | 0.00 | 0.00 | 87 | 1014.6 |
| 20260505074505 | 11 | 2 | 11.3 | 29.0 | 0.00 | 0.00 | 0.00 | 87 | 1014.2 |
| 20260505074004 | 10 | 35 | 14.5 | 33.8 | 0.00 | 0.00 | 0.00 | 87 | 1014.6 |
| 20260505073504 | 10 | 8 | 25.7 | 33.8 | 0.00 | 0.00 | 0.00 | 88 | 1014.9 |
| 20260505073004 | 10 | 63 | 19.3 | 25.7 | 0.00 | 0.00 | 0.00 | 88 | 1014.6 |
| 20260505072504 | 10 | 14 | 12.9 | 33.8 | 0.00 | 0.00 | 0.00 | 88 | 1014.9 |
| 20260505072004 | 10 | 56 | 14.5 | 33.8 | 0.00 | 0.00 | 0.00 | 88 | 1014.6 |
| 20260505071504 | 10 | 69 | 4.8 | 19.3 | 0.00 | 0.00 | 0.00 | 89 | 1014.2 |
| 20260505071003 | 10 | 11 | 9.7 | 25.7 | 0.00 | 0.00 | 0.00 | 89 | 1014.9 |
| 20260505070504 | 10 | 347 | 9.7 | 25.7 | 0.00 | 0.00 | 0.00 | 90 | 1014.9 |
| 20260505070005 | 10 | 37 | 12.9 | 19.3 | 0.00 | 0.00 | 0.00 | 91 | 1015.2 |
| 20260505065505 | 10 | 29 | 3.2 | 19.3 | 0.00 | 0.00 | 0.00 | 92 | 1014.9 |
| 20260505065004 | 10 | 329 | 9.7 | 19.3 | 0.00 | 0.00 | 0.00 | 92 | 1014.9 |
| 20260505063503 | 9 | 334 | 9.7 | 22.5 | 0.00 | 0.00 | 0.00 | 93 | 1014.6 |
| 20260505063004 | 9 | 343 | 9.7 | 19.3 | 0.00 | 0.00 | 0.00 | 94 | 1014.9 |
| 20260505062504 | 8 | 24 | 9.7 | 11.3 | 0.00 | 0.00 | 0.00 | 95 | 1014.9 |
| 20260505062004 | 8 | 23 | 0.0 | 11.3 | 0.00 | 0.00 | 0.00 | 95 | 1014.6 |
| 20260505061504 | 8 | 33 | 4.8 | 11.3 | 0.00 | 0.00 | 0.00 | 95 | 1014.9 |
| 20260505061004 | 8 | 15 | 3.2 | 4.8 | 0.00 | 0.00 | 0.00 | 95 | 1013.5 |
| 20260505060504 | 8 | 353 | 3.2 | 4.8 | 0.00 | 0.00 | 0.00 | 95 | 1013.9 |
| 20260505060004 | 8 | 38 | 3.2 | 8.0 | 0.00 | 0.00 | 0.00 | 96 | 1013.5 |
| 20260505055503 | 8 | 16 | 3.2 | 11.3 | 0.00 | 0.00 | 0.00 | 96 | 1013.5 |
| 20260505055004 | 8 | 18 | 9.7 | 11.3 | 0.00 | 0.00 | 0.00 | 96 | 1013.9 |
| 20260505054504 | 8 | 46 | 3.2 | 11.3 | 0.00 | 0.00 | 0.00 | 96 | 1013.9 |
| 20260505054005 | 8 | 35 | 4.8 | 11.3 | 0.00 | 0.00 | 0.00 | 96 | 1013.9 |
| 20260505053503 | 8 | 39 | 1.6 | 19.3 | 0.00 | 0.00 | 0.00 | 96 | 1014.9 |
| 20260505052504 | 7 | 26 | 8.0 | 22.5 | 0.00 | 0.00 | 0.00 | 96 | 1014.9 |
| 20260505052004 | 7 | 21 | 9.7 | 22.5 | 0.00 | 0.00 | 0.00 | 96 | 1014.9 |
| 20260505051505 | 7 | 18 | 4.8 | 14.5 | 0.00 | 0.00 | 0.00 | 96 | 1014.6 |
| 20260505051005 | 7 | 14 | 3.2 | 14.5 | 0.00 | 0.00 | 0.00 | 96 | 1014.9 |
| 20260505050505 | 7 | 22 | 8.0 | 14.5 | 0.00 | 0.00 | 0.00 | 96 | 1014.9 |
| 20260505041504 | 7 | 356 | 1.6 | 11.3 | 0.00 | 0.00 | 0.00 | 95 | 1014.5 |
| 20260505041004 | 7 | 353 | 3.2 | 8.0 | 0.00 | 0.00 | 0.00 | 95 | 1014.3 |
| 20260505040503 | 8 | 4 | 3.2 | 8.0 | 0.00 | 0.00 | 0.00 | 95 | 1015.2 |
| 20260505040005 | 8 | 357 | 1.6 | 8.0 | 0.00 | 0.00 | 0.00 | 95 | 1015.2 |
| 20260505035505 | 8 | 26 | 0.0 | 8.0 | 0.00 | 0.00 | 0.00 | 95 | 1015.2 |
| 20260505035005 | 8 | 19 | 1.6 | 8.0 | 0.00 | 0.00 | 0.00 | 95 | 1014.9 |
| 20260505034504 | 8 | 28 | 1.6 | 8.0 | 0.00 | 0.00 | 0.00 | 95 | 1015.2 |
| 20260505033503 | 8 | 29 | 0.0 | 0.0 | 0.00 | 0.00 | 0.00 | 95 | 1014.2 |
| 20260505033004 | 7 | 29 | 0.0 | 0.0 | 0.00 | 0.00 | 0.00 | 95 | 1014.2 |
| 20260505032505 | 8 | 29 | 0.0 | 0.0 | 0.00 | 0.00 | 0.00 | 95 | 1014.9 |
| 20260505032004 | 8 | 29 | 0.0 | 0.0 | 0.00 | 0.00 | 0.00 | 94 | 1014.2 |
| 20260505031504 | 8 | 29 | 0.0 | 0.0 | 0.00 | 0.00 | 0.00 | 94 | 1013.9 |
| 20260505031004 | 8 | 29 | 0.0 | 0.0 | 0.00 | 0.00 | 0.00 | 94 | 1013.9 |
| 20260505030503 | 8 | 81 | 0.0 | 0.0 | 0.00 | 0.00 | 0.00 | 94 | 1014.2 |
| 20260505030004 | 8 | 86 | 0.0 | 0.0 | 0.00 | 0.00 | 0.00 | 94 | 1014.9 |
| 20260505025504 | 8 | 86 | 0.0 | 0.0 | 0.00 | 0.00 | 0.00 | 94 | 1013.9 |
| 20260505024504 | 8 | 86 | 0.0 | 0.0 | 0.00 | 0.00 | 0.00 | 93 | 1014.9 |
| 20260505022504 | 9 | 35 | 3.2 | 8.0 | 0.00 | 0.00 | 0.00 | 93 | 1013.9 |
| 20260505021504 | 9 | 1 | 1.6 | 3.2 | 0.00 | 0.00 | 0.00 | 93 | 1014.2 |
| 20260505021005 | 9 | 28 | 3.2 | 4.8 | 0.00 | 0.00 | 0.00 | 92 | 1013.9 |
| 20260505020504 | 10 | 306 | 4.8 | 14.5 | 0.00 | 0.00 | 0.00 | 92 | 1013.9 |
| 20260505020005 | 10 | 343 | 11.3 | 14.5 | 0.00 | 0.00 | 0.00 | 92 | 1014.9 |
| 20260505015504 | 10 | 355 | 4.8 | 11.3 | 0.00 | 0.00 | 0.00 | 92 | 1014.9 |
| 20260505015003 | 10 | 355 | 8.0 | 14.5 | 0.00 | 0.00 | 0.00 | 92 | 1015.2 |
| 20260505014505 | 10 | 22 | 9.7 | 14.5 | 0.00 | 0.00 | 0.00 | 91 | 1014.9 |
| 20260505013505 | 10 | 20 | 0.0 | 8.0 | 0.00 | 0.00 | 0.00 | 91 | 1015.2 |
| 20260505012504 | 10 | 129 | 0.0 | 4.8 | 0.00 | 0.00 | 0.00 | 91 | 1015.2 |
| 20260505012005 | 10 | 60 | 3.2 | 4.8 | 0.00 | 0.00 | 0.00 | 90 | 1014.2 |
| 20260505011504 | 11 | 11 | 4.8 | 8.0 | 0.00 | 0.00 | 0.00 | 90 | 1014.6 |
| 20260505011004 | 11 | 30 | 4.8 | 12.9 | 0.00 | 0.00 | 0.00 | 90 | 1014.6 |
| 20260505010504 | 11 | 55 | 9.7 | 12.9 | 0.00 | 0.00 | 0.00 | 89 | 1014.2 |
| 20260505010004 | 11 | 32 | 4.8 | 4.8 | 0.00 | 0.00 | 0.00 | 89 | 1014.6 |
| 20260505005004 | 11 | 24 | 4.8 | 11.3 | 0.00 | 0.00 | 0.00 | 89 | 1015.6 |
| 20260505004504 | 11 | 20 | 3.2 | 14.5 | 0.00 | 0.00 | 0.00 | 89 | 1015.6 |
| 20260505004004 | 11 | 52 | 3.2 | 14.5 | 0.00 | 0.00 | 0.00 | 89 | 1015.6 |
| 20260505003505 | 11 | 36 | 4.8 | 19.3 | 0.00 | 0.00 | 0.00 | 89 | 1015.6 |
| 20260505003004 | 11 | 62 | 12.9 | 19.3 | 0.00 | 0.00 | 0.00 | 89 | 1015.6 |
| 20260505002504 | 11 | 12 | 3.2 | 14.5 | 0.00 | 0.00 | 0.00 | 89 | 1015.6 |
| 20260505001504 | 11 | 39 | 8.0 | 11.3 | 0.00 | 0.00 | 0.00 | 89 | 1015.6 |
| 20260505001004 | 11 | 35 | 1.6 | 8.0 | 0.00 | 0.00 | 0.00 | 89 | 1014.6 |
| 20260505000504 | 11 | 31 | 4.8 | 8.0 | 0.00 | 0.00 | 0.00 | 89 | 1014.6 |
| 20260504235504 | 11 | 33 | 4.8 | 4.8 | 0.00 | 0.00 | 0.00 | 89 | 1014.9 |
| 20260504235003 | 11 | 63 | 1.6 | 4.8 | 0.00 | 0.00 | 0.00 | 89 | 1014.9 |
| 20260504234004 | 11 | 35 | 8.0 | 8.0 | 0.00 | 0.00 | 0.00 | 88 | 1014.9 |
| 20260504233503 | 11 | 35 | 4.8 | 11.3 | 0.00 | 0.00 | 0.00 | 88 | 1014.9 |
| 20260504233005 | 11 | 45 | 8.0 | 11.3 | 0.00 | 0.00 | 0.00 | 88 | 1015.9 |
| 20260504232504 | 11 | 11 | 1.6 | 11.3 | 0.00 | 0.00 | 0.00 | 88 | 1015.6 |
| 20260504232004 | 12 | 36 | 4.8 | 11.3 | 0.00 | 0.00 | 0.00 | 88 | 1015.6 |
| 20260504231505 | 12 | 65 | 4.8 | 14.5 | 0.00 | 0.00 | 0.00 | 87 | 1015.9 |
| 20260504231004 | 12 | 25 | 9.7 | 14.5 | 0.00 | 0.00 | 0.00 | 87 | 1015.6 |
| 20260504230504 | 12 | 46 | 9.7 | 14.5 | 0.00 | 0.00 | 0.00 | 87 | 1015.9 |
| 20260504225504 | 12 | 55 | 1.6 | 14.5 | 0.00 | 0.00 | 0.00 | 87 | 1015.6 |
| 20260504225003 | 12 | 44 | 8.0 | 14.5 | 0.00 | 0.00 | 0.00 | 86 | 1015.9 |
| 20260504223505 | 12 | 314 | 4.8 | 19.3 | 0.00 | 0.00 | 0.00 | 86 | 1015.6 |
| 20260504223003 | 12 | 36 | 3.2 | 19.3 | 0.00 | 0.00 | 0.00 | 86 | 1015.9 |
| 20260504222505 | 12 | 23 | 4.8 | 19.3 | 0.00 | 0.00 | 0.00 | 86 | 1014.9 |
| 20260504222004 | 12 | 29 | 12.9 | 19.3 | 0.00 | 0.00 | 0.00 | 86 | 1015.9 |
| 20260504220504 | 12 | 48 | 4.8 | 11.3 | 0.00 | 0.00 | 0.00 | 87 | 1014.9 |
| 20260504220004 | 12 | 8 | 3.2 | 14.5 | 0.00 | 0.00 | 0.00 | 87 | 1016.3 |
| 20260504215504 | 12 | 28 | 4.8 | 19.3 | 0.00 | 0.00 | 0.00 | 87 | 1015.6 |
| 20260504215003 | 12 | 21 | 9.7 | 19.3 | 0.00 | 0.00 | 0.00 | 87 | 1015.9 |
| 20260504214504 | 12 | 48 | 9.7 | 19.3 | 0.00 | 0.00 | 0.00 | 87 | 1015.6 |
| 20260504214004 | 12 | 59 | 8.0 | 19.3 | 0.00 | 0.00 | 0.00 | 87 | 1015.9 |
| 20260504213504 | 12 | 58 | 11.3 | 19.3 | 0.00 | 0.00 | 0.00 | 87 | 1015.9 |
| 20260504213005 | 12 | 36 | 3.2 | 19.3 | 0.00 | 0.00 | 0.00 | 87 | 1016.3 |
| 20260504212504 | 12 | 64 | 12.9 | 19.3 | 0.00 | 0.00 | 0.00 | 87 | 1015.9 |
| 20260504212004 | 12 | 27 | 4.8 | 8.0 | 0.00 | 0.00 | 0.00 | 87 | 1015.2 |
| 20260504211004 | 12 | 32 | 8.0 | 14.5 | 0.00 | 0.00 | 0.00 | 87 | 1015.9 |
| 20260504210504 | 12 | 35 | 3.2 | 11.3 | 0.00 | 0.00 | 0.00 | 87 | 1015.9 |
| 20260504205505 | 12 | 23 | 4.8 | 11.3 | 0.00 | 0.00 | 0.00 | 87 | 1015.2 |
| 20260504205005 | 12 | 103 | 3.2 | 11.3 | 0.00 | 0.00 | 0.00 | 87 | 1015.2 |
| 20260504204504 | 12 | 37 | 3.2 | 4.8 | 0.00 | 0.00 | 0.00 | 87 | 1015.2 |
| 20260504204005 | 12 | 36 | 1.6 | 11.3 | 0.00 | 0.00 | 0.00 | 87 | 1015.8 |
| 20260504203505 | 12 | 24 | 6.4 | 11.3 | 0.00 | 0.00 | 0.00 | 87 | 1015.9 |
| 20260504203004 | 12 | 25 | 8.0 | 11.3 | 0.00 | 0.00 | 0.00 | 87 | 1015.9 |
| 20260504202504 | 12 | 20 | 4.8 | 14.5 | 0.00 | 0.00 | 0.00 | 87 | 1015.7 |
| 20260504202004 | 12 | 25 | 3.2 | 14.5 | 0.00 | 0.00 | 0.00 | 87 | 1015.8 |
| 20260504201504 | 12 | 25 | 3.2 | 11.3 | 0.00 | 0.00 | 0.00 | 87 | 1015.5 |
| 20260504201004 | 12 | 25 | 3.2 | 8.0 | 0.00 | 0.00 | 0.00 | 87 | 1015.6 |
| 20260504200505 | 12 | 20 | 1.6 | 8.0 | 0.00 | 0.00 | 0.00 | 87 | 1015.9 |
| 20260504200004 | 12 | 30 | 4.8 | 8.0 | 0.00 | 0.00 | 0.00 | 87 | 1015.9 |
| 20260504195505 | 12 | 26 | 3.2 | 8.0 | 0.00 | 0.00 | 0.00 | 87 | 1015.5 |
| 20260504195003 | 12 | 346 | 1.6 | 3.2 | 0.00 | 0.00 | 0.00 | 87 | 1015.0 |
| 20260504194504 | 12 | 355 | 0.0 | 3.2 | 0.00 | 0.00 | 0.00 | 87 | 1015.1 |
| 20260504193504 | 12 | 32 | 8.0 | 14.5 | 0.00 | 0.00 | 0.00 | 87 | 1015.6 |
| 20260504193005 | 12 | 27 | 6.4 | 14.5 | 0.00 | 0.00 | 0.00 | 87 | 1015.5 |
| 20260504192504 | 12 | 25 | 3.2 | 14.5 | 0.00 | 0.00 | 0.00 | 86 | 1015.2 |
| 20260504192004 | 13 | 36 | 6.4 | 11.3 | 0.00 | 0.00 | 0.00 | 86 | 1015.2 |
| 20260504191504 | 13 | 43 | 6.4 | 11.3 | 0.00 | 0.00 | 0.00 | 85 | 1014.6 |
| 20260504191003 | 13 | 27 | 8.0 | 16.1 | 0.00 | 0.00 | 0.00 | 85 | 1015.2 |
| 20260504190504 | 13 | 23 | 9.7 | 16.1 | 0.00 | 0.00 | 0.00 | 85 | 1014.9 |
| 20260504190005 | 13 | 42 | 8.0 | 8.0 | 0.00 | 0.00 | 0.00 | 85 | 1014.9 |
| 20260504185503 | 13 | 28 | 4.8 | 11.3 | 0.00 | 0.00 | 0.00 | 84 | 1014.9 |
| 20260504185004 | 13 | 95 | 8.0 | 14.5 | 0.00 | 0.00 | 0.00 | 84 | 1015.2 |
| 20260504184004 | 13 | 35 | 4.8 | 14.5 | 0.00 | 0.00 | 0.00 | 84 | 1015.2 |
| 20260504183504 | 13 | 117 | 8.0 | 14.5 | 0.00 | 0.00 | 0.00 | 84 | 1015.2 |
| 20260504183004 | 13 | 64 | 4.8 | 19.3 | 0.00 | 0.00 | 0.00 | 84 | 1015.2 |
| 20260504182504 | 13 | 70 | 6.4 | 19.3 | 0.00 | 0.00 | 0.00 | 84 | 1014.9 |
| 20260504182004 | 13 | 30 | 3.2 | 4.8 | 0.00 | 0.00 | 0.00 | 84 | 1014.6 |
| 20260504181503 | 13 | 21 | 4.8 | 8.0 | 0.00 | 0.00 | 0.00 | 84 | 1014.6 |
| 20260504181004 | 13 | 34 | 8.0 | 19.3 | 0.00 | 0.00 | 0.00 | 84 | 1014.6 |
| 20260504180504 | 13 | 4 | 11.3 | 19.3 | 0.00 | 0.00 | 0.00 | 84 | 1014.9 |
| 20260504180005 | 13 | 58 | 1.6 | 12.9 | 0.00 | 0.00 | 0.00 | 84 | 1014.6 |
| 20260504175003 | 13 | 84 | 9.7 | 19.3 | 0.00 | 0.00 | 0.00 | 84 | 1014.2 |
| 20260504174004 | 13 | 22 | 16.1 | 25.7 | 0.00 | 0.00 | 0.00 | 84 | 1015.2 |
| 20260504173505 | 13 | 24 | 4.8 | 14.5 | 0.00 | 0.00 | 0.00 | 85 | 1015.2 |
| 20260504173005 | 13 | 58 | 11.3 | 19.3 | 0.00 | 0.00 | 0.00 | 85 | 1014.9 |
| 20260504172504 | 13 | 46 | 16.1 | 19.3 | 0.00 | 0.00 | 0.00 | 84 | 1014.9 |
| 20260504172004 | 13 | 44 | 11.3 | 22.5 | 0.00 | 0.00 | 0.00 | 84 | 1014.2 |
| 20260504171004 | 13 | 63 | 12.9 | 25.7 | 0.00 | 0.00 | 0.00 | 83 | 1014.9 |
| 20260504170503 | 13 | 73 | 8.0 | 11.3 | 0.00 | 0.00 | 0.00 | 83 | 1014.9 |
| 20260504151004 | 15 | 36 | 4.8 | 22.5 | 0.00 | 0.00 | 0.00 | 79 | 1014.6 |
| 20260504150505 | 15 | 67 | 9.7 | 33.8 | 0.00 | 0.00 | 0.00 | 78 | 1014.9 |